Time,TemperatureF,DewpointF,PressureIn,WindDirection,WindDirectionDegrees,WindSpeedMPH,WindSpeedGustMPH,Humidity,HourlyPrecipIn,Conditions,Clouds,dailyrainin,SoftwareType,DateUTC
2013-09-22 00:14:00,63.1,59.0,29.84,NNW,330,0.0,0.0,86,0.00,,,0.00,weatherlink.com 1.10,2013-09-22 05:14:00,
2013-09-22 00:30:00,62.7,59.0,29.84,NNW,330,0.0,0.0,87,0.00,,,0.00,weatherlink.com 1.10,2013-09-22 05:30:00,
2013-09-22 00:44:00,62.1,58.0,29.84,NNW,330,0.0,0.0,87,0.00,,,0.00,weatherlink.com 1.10,2013-09-22 05:44:00,
2013-09-22 00:59:00,61.9,58.0,29.84,NNW,330,0.0,0.0,87,0.00,,,0.00,weatherlink.com 1.10,2013-09-22 05:59:00,
2013-09-22 01:14:00,61.4,58.0,29.84,NNW,330,0.0,0.0,87,0.00,,,0.00,weatherlink.com 1.10,2013-09-22 06:14:00,
2013-09-22 01:29:00,60.9,57.0,29.84,NNW,330,0.0,0.0,87,0.00,,,0.00,weatherlink.com 1.10,2013-09-22 06:29:00,
2013-09-22 01:45:00,60.8,57.0,29.84,NNW,328,0.0,0.0,87,0.00,,,0.00,weatherlink.com 1.10,2013-09-22 06:45:00,
2013-09-22 01:59:00,60.5,57.0,29.84,NW,323,0.0,0.0,87,0.00,,,0.00,weatherlink.com 1.10,2013-09-22 06:59:00,
2013-09-22 02:15:00,60.2,56.0,29.84,NW,323,0.0,0.0,87,0.00,,,0.00,weatherlink.com 1.10,2013-09-22 07:15:00,
2013-09-22 02:29:00,60.1,56.0,29.84,NW,323,0.0,0.0,87,0.00,,,0.00,weatherlink.com 1.10,2013-09-22 07:29:00,
2013-09-22 02:45:00,59.6,56.0,29.85,NW,313,0.0,0.0,87,0.00,,,0.00,weatherlink.com 1.10,2013-09-22 07:45:00,
2013-09-22 03:00:00,59.3,56.0,29.84,NNW,334,0.0,0.0,87,0.00,,,0.00,weatherlink.com 1.10,2013-09-22 08:00:00,
2013-09-22 03:15:00,59.1,55.0,29.84,NNW,336,0.0,2.0,87,0.00,,,0.00,weatherlink.com 1.10,2013-09-22 08:15:00,
2013-09-22 03:30:00,59.0,55.0,29.84,NNW,328,0.0,3.0,87,0.00,,,0.00,weatherlink.com 1.10,2013-09-22 08:30:00,
2013-09-22 03:45:00,59.0,55.0,29.84,SSW,209,0.0,2.0,87,0.00,,,0.00,weatherlink.com 1.10,2013-09-22 08:45:00,
2013-09-22 04:00:00,59.0,55.0,29.83,SSW,209,0.0,0.0,87,0.00,,,0.00,weatherlink.com 1.10,2013-09-22 09:00:00,
2013-09-22 04:15:00,58.6,55.0,29.83,SSW,208,0.0,0.0,87,0.00,,,0.00,weatherlink.com 1.10,2013-09-22 09:15:00,
2013-09-22 04:30:00,58.3,55.0,29.83,SSW,209,0.0,0.0,87,0.00,,,0.00,weatherlink.com 1.10,2013-09-22 09:30:00,
2013-09-22 04:45:00,58.2,54.0,29.84,SSW,211,0.0,2.0,87,0.00,,,0.00,weatherlink.com 1.10,2013-09-22 09:45:00,
2013-09-22 05:00:00,57.8,54.0,29.84,SSW,211,0.0,0.0,87,0.00,,,0.00,weatherlink.com 1.10,2013-09-22 10:00:00,
2013-09-22 05:15:00,57.3,54.0,29.84,SSW,211,0.0,2.0,87,0.00,,,0.00,weatherlink.com 1.10,2013-09-22 10:15:00,
2013-09-22 05:30:00,57.0,53.0,29.83,SSW,211,0.0,1.0,87,0.00,,,0.00,weatherlink.com 1.10,2013-09-22 10:30:00,
2013-09-22 05:45:00,57.0,53.0,29.84,SSW,211,0.0,0.0,87,0.00,,,0.00,weatherlink.com 1.10,2013-09-22 10:45:00,
2013-09-22 06:00:00,56.8,53.0,29.84,SSW,211,0.0,0.0,87,0.00,,,0.00,weatherlink.com 1.10,2013-09-22 11:00:00,
2013-09-22 06:15:00,56.4,53.0,29.84,SSW,211,0.0,0.0,87,0.00,,,0.00,weatherlink.com 1.10,2013-09-22 11:15:00,
2013-09-22 06:31:00,56.2,52.0,29.84,SSW,211,0.0,1.0,87,0.00,,,0.00,weatherlink.com 1.10,2013-09-22 11:31:00,
2013-09-22 06:45:00,56.0,52.0,29.85,SW,228,0.0,0.0,87,0.00,,,0.00,weatherlink.com 1.10,2013-09-22 11:45:00,
2013-09-22 07:00:00,56.0,52.0,29.85,ENE,65,0.0,1.0,87,0.00,,,0.00,weatherlink.com 1.10,2013-09-22 12:00:00,
2013-09-22 07:15:00,55.7,52.0,29.86,ENE,65,0.0,1.0,87,0.00,,,0.00,weatherlink.com 1.10,2013-09-22 12:15:00,
2013-09-22 07:30:00,55.7,52.0,29.86,ENE,65,0.0,1.0,87,0.00,,,0.00,weatherlink.com 1.10,2013-09-22 12:30:00,
2013-09-22 07:45:00,56.2,52.0,29.87,ENE,65,0.0,1.0,87,0.00,,,0.00,weatherlink.com 1.10,2013-09-22 12:45:00,
2013-09-22 08:00:00,56.7,53.0,29.86,North,355,0.0,0.0,86,0.00,,,0.00,weatherlink.com 1.10,2013-09-22 13:00:00,
2013-09-22 08:15:00,57.3,53.0,29.87,North,355,0.0,1.0,86,0.00,,,0.00,weatherlink.com 1.10,2013-09-22 13:15:00,
2013-09-22 08:30:00,58.5,55.0,29.87,West,276,0.0,3.0,87,0.00,,,0.00,weatherlink.com 1.10,2013-09-22 13:30:00,
2013-09-22 08:45:00,59.8,56.0,29.88,WNW,287,2.0,3.0,87,0.00,,,0.00,weatherlink.com 1.10,2013-09-22 13:45:00,
2013-09-22 09:00:00,61.6,57.0,29.88,North,350,0.0,3.0,86,0.00,,,0.00,weatherlink.com 1.10,2013-09-22 14:00:00,
2013-09-22 09:15:00,63.0,58.0,29.88,West,259,0.0,4.0,84,0.00,,,0.00,weatherlink.com 1.10,2013-09-22 14:15:00,
2013-09-22 09:30:00,64.9,59.0,29.88,WNW,288,0.0,7.0,81,0.00,,,0.00,weatherlink.com 1.10,2013-09-22 14:30:00,
2013-09-22 09:46:00,66.8,59.0,29.89,South,184,0.0,10.0,76,0.00,,,0.00,weatherlink.com 1.10,2013-09-22 14:46:00,
2013-09-22 10:01:00,69.2,59.0,29.89,NW,307,4.0,10.0,70,0.00,,,0.00,weatherlink.com 1.10,2013-09-22 15:01:00,
2013-09-22 10:16:00,70.8,58.0,29.89,SW,228,1.0,9.0,65,0.00,,,0.00,weatherlink.com 1.10,2013-09-22 15:16:00,
2013-09-22 10:31:00,71.7,58.0,29.89,East,80,0.0,13.0,62,0.00,,,0.00,weatherlink.com 1.10,2013-09-22 15:31:00,
2013-09-22 10:46:00,73.3,58.0,29.89,SW,220,0.0,7.0,59,0.00,,,0.00,weatherlink.com 1.10,2013-09-22 15:46:00,
2013-09-22 11:01:00,74.1,57.0,29.89,South,184,0.0,9.0,56,0.00,,,0.00,weatherlink.com 1.10,2013-09-22 16:01:00,
2013-09-22 11:16:00,75.3,57.0,29.89,WNW,286,4.0,8.0,54,0.00,,,0.00,weatherlink.com 1.10,2013-09-22 16:16:00,
2013-09-22 11:31:00,75.6,58.0,29.89,South,187,0.0,6.0,55,0.00,,,0.00,weatherlink.com 1.10,2013-09-22 16:31:00,
2013-09-22 11:46:00,76.5,56.0,29.89,NNW,340,3.0,15.0,50,0.00,,,0.00,weatherlink.com 1.10,2013-09-22 16:46:00,
2013-09-22 12:01:00,77.0,55.0,29.89,West,278,0.0,8.0,47,0.00,,,0.00,weatherlink.com 1.10,2013-09-22 17:01:00,
2013-09-22 12:16:00,77.1,55.0,29.89,NNW,345,0.0,8.0,46,0.00,,,0.00,weatherlink.com 1.10,2013-09-22 17:16:00,
2013-09-22 12:31:00,78.6,57.0,29.88,West,281,0.0,5.0,47,0.00,,,0.00,weatherlink.com 1.10,2013-09-22 17:31:00,
2013-09-22 12:46:00,78.7,53.0,29.88,WSW,253,0.0,10.0,41,0.00,,,0.00,weatherlink.com 1.10,2013-09-22 17:46:00,
2013-09-22 13:01:00,78.7,54.0,29.88,West,278,3.0,8.0,42,0.00,,,0.00,weatherlink.com 1.10,2013-09-22 18:01:00,
2013-09-22 13:16:00,79.1,53.0,29.87,West,267,6.0,8.0,41,0.00,,,0.00,weatherlink.com 1.10,2013-09-22 18:16:00,
2013-09-22 13:31:00,80.8,51.0,29.86,West,274,0.0,8.0,36,0.00,,,0.00,weatherlink.com 1.10,2013-09-22 18:31:00,
2013-09-22 13:46:00,80.8,51.0,29.85,WNW,284,0.0,6.0,36,0.00,,,0.00,weatherlink.com 1.10,2013-09-22 18:46:00,
2013-09-22 14:01:00,81.6,51.0,29.84,WNW,296,1.0,9.0,35,0.00,,,0.00,weatherlink.com 1.10,2013-09-22 19:01:00,
2013-09-22 14:16:00,82.1,51.0,29.84,WNW,297,3.0,6.0,34,0.00,,,0.00,weatherlink.com 1.10,2013-09-22 19:16:00,
2013-09-22 14:31:00,82.6,52.0,29.83,NW,315,0.0,9.0,35,0.00,,,0.00,weatherlink.com 1.10,2013-09-22 19:31:00,
2013-09-22 14:46:00,83.1,52.0,29.82,WNW,296,0.0,9.0,34,0.00,,,0.00,weatherlink.com 1.10,2013-09-22 19:46:00,
2013-09-22 15:01:00,83.6,51.0,29.81,SSW,201,0.0,9.0,32,0.00,,,0.00,weatherlink.com 1.10,2013-09-22 20:01:00,
2013-09-22 15:16:00,84.3,51.0,29.80,West,274,0.0,5.0,32,0.00,,,0.00,weatherlink.com 1.10,2013-09-22 20:16:00,
2013-09-22 15:31:00,84.5,52.0,29.80,NNW,345,1.0,7.0,32,0.00,,,0.00,weatherlink.com 1.10,2013-09-22 20:31:00,
2013-09-22 15:47:00,84.2,50.0,29.79,WNW,288,0.0,8.0,31,0.00,,,0.00,weatherlink.com 1.10,2013-09-22 20:47:00,
2013-09-22 16:02:00,85.0,52.0,29.78,ENE,59,0.0,8.0,32,0.00,,,0.00,weatherlink.com 1.10,2013-09-22 21:02:00,
2013-09-22 16:17:00,84.6,52.0,29.78,West,270,6.0,8.0,32,0.00,,,0.00,weatherlink.com 1.10,2013-09-22 21:17:00,
2013-09-22 16:32:00,84.6,52.0,29.77,NE,40,0.0,10.0,33,0.00,,,0.00,weatherlink.com 1.10,2013-09-22 21:32:00,
2013-09-22 16:47:00,84.0,50.0,29.77,WNW,300,2.0,9.0,31,0.00,,,0.00,weatherlink.com 1.10,2013-09-22 21:47:00,
2013-09-22 17:02:00,83.9,51.0,29.77,SSW,202,0.0,11.0,32,0.00,,,0.00,weatherlink.com 1.10,2013-09-22 22:02:00,
2013-09-22 17:17:00,83.9,51.0,29.77,NNW,334,2.0,9.0,32,0.00,,,0.00,weatherlink.com 1.10,2013-09-22 22:17:00,
2013-09-22 17:32:00,84.4,52.0,29.77,South,190,0.0,1.0,33,0.00,,,0.00,weatherlink.com 1.10,2013-09-22 22:32:00,
2013-09-22 17:47:00,83.7,54.0,29.78,South,191,0.0,1.0,36,0.00,,,0.00,weatherlink.com 1.10,2013-09-22 22:47:00,
2013-09-22 18:02:00,81.2,53.0,29.78,WNW,297,0.0,5.0,38,0.00,,,0.00,weatherlink.com 1.10,2013-09-22 23:02:00,
2013-09-22 18:17:00,79.4,54.0,29.78,SSE,154,0.0,2.0,42,0.00,,,0.00,weatherlink.com 1.10,2013-09-22 23:17:00,
2013-09-22 18:32:00,78.3,53.0,29.78,WNW,282,0.0,7.0,42,0.00,,,0.00,weatherlink.com 1.10,2013-09-22 23:32:00,
2013-09-22 18:47:00,77.4,56.0,29.79,West,265,0.0,1.0,48,0.00,,,0.00,weatherlink.com 1.10,2013-09-22 23:47:00,
2013-09-22 19:02:00,75.7,57.0,29.79,WNW,282,0.0,0.0,52,0.00,,,0.00,weatherlink.com 1.10,2013-09-23 00:02:00,
2013-09-22 19:17:00,73.2,56.0,29.80,NNE,32,0.0,0.0,56,0.00,,,0.00,weatherlink.com 1.10,2013-09-23 00:17:00,
2013-09-22 19:32:00,71.1,57.0,29.80,NNE,32,0.0,0.0,62,0.00,,,0.00,weatherlink.com 1.10,2013-09-23 00:32:00,
2013-09-22 19:47:00,69.5,58.0,29.81,NNE,31,0.0,0.0,66,0.00,,,0.00,weatherlink.com 1.10,2013-09-23 00:47:00,
2013-09-22 19:55:00,68.5,57.0,29.81,NNE,32,0.0,0.0,68,0.00,,,0.00,weatherlink.com 1.10,2013-09-23 00:55:00,
2013-09-22 20:13:00,67.0,57.0,29.82,NNE,31,0.0,0.0,71,0.00,,,0.00,weatherlink.com 1.10,2013-09-23 01:13:00,
2013-09-22 20:28:00,65.9,57.0,29.82,NNE,32,0.0,0.0,73,0.00,,,0.00,weatherlink.com 1.10,2013-09-23 01:28:00,
2013-09-22 20:43:00,65.0,57.0,29.82,NNE,32,0.0,0.0,75,0.00,,,0.00,weatherlink.com 1.10,2013-09-23 01:43:00,
2013-09-22 20:58:00,64.3,57.0,29.82,NNE,32,0.0,0.0,78,0.00,,,0.00,weatherlink.com 1.10,2013-09-23 01:58:00,
2013-09-22 21:13:00,63.5,57.0,29.82,NNE,32,0.0,0.0,80,0.00,,,0.00,weatherlink.com 1.10,2013-09-23 02:13:00,
2013-09-22 21:28:00,63.0,57.0,29.82,NNE,31,0.0,0.0,82,0.00,,,0.00,weatherlink.com 1.10,2013-09-23 02:28:00,
2013-09-22 21:43:00,62.6,57.0,29.83,NNE,31,0.0,0.0,83,0.00,,,0.00,weatherlink.com 1.10,2013-09-23 02:43:00,
2013-09-22 21:58:00,62.2,57.0,29.83,NNE,31,0.0,0.0,84,0.00,,,0.00,weatherlink.com 1.10,2013-09-23 02:58:00,
2013-09-22 22:13:00,61.8,57.0,29.83,NNE,32,0.0,0.0,85,0.00,,,0.00,weatherlink.com 1.10,2013-09-23 03:13:00,
2013-09-22 22:28:00,61.3,57.0,29.83,NNE,32,0.0,0.0,86,0.00,,,0.00,weatherlink.com 1.10,2013-09-23 03:28:00,
2013-09-22 22:43:00,61.2,57.0,29.83,NNE,32,0.0,0.0,86,0.00,,,0.00,weatherlink.com 1.10,2013-09-23 03:43:00,
2013-09-22 22:58:00,60.9,57.0,29.83,NNE,32,0.0,0.0,86,0.00,,,0.00,weatherlink.com 1.10,2013-09-23 03:58:00,
2013-09-22 23:13:00,60.4,57.0,29.83,NNE,31,0.0,0.0,87,0.00,,,0.00,weatherlink.com 1.10,2013-09-23 04:13:00,
2013-09-22 23:28:00,60.0,56.0,29.83,NNE,31,0.0,0.0,87,0.00,,,0.00,weatherlink.com 1.10,2013-09-23 04:28:00,
2013-09-22 23:43:00,59.7,56.0,29.83,NNE,31,0.0,0.0,87,0.00,,,0.00,weatherlink.com 1.10,2013-09-23 04:43:00,
2013-09-22 23:58:00,59.3,56.0,29.83,NNE,32,0.0,0.0,87,0.00,,,0.00,weatherlink.com 1.10,2013-09-23 04:58:00,